Retour au catalogue

HULIANWANG DIGUI-42

ActifCommunicationsLEO
NORAD 65045·PAYLOAD·🇨🇳 China

Lancé Jul 30, 2025 depuis Wenchang Space Launch Site

Loading…

Prochains Passages (prochaines 24 heures)

TLE

FraisSource: Space-Track

Époque: Sep 14, 2026, 21:55 UTC

1 65045U 25162C   26257.91368138 -.00000092  00000-0  68863-4 0  9994
2 65045  49.9977 303.8787 0000705 259.5984 100.4809 13.29325146 55296

Suivez HULIANWANG DIGUI-42 en temps réel avec AllMySat

Download on the App Store